Plattsburgh, NY

8:41 PM EDT on June 24, 2018 (GMT -0400)
Plattsburgh International

Weather History for KPBG - August, 2017

Change the Weather History Date:

Sunday, August 13, 2017

  Actual Average Record
Temperature  
Mean Temperature 69 °F 68 °F  
Max Temperature 82 °F 79 °F 96 °F (1988)
Min Temperature 56 °F 57 °F 43 °F (1992)
Degree Days  
Heating Degree Days 0 1  
Month to date heating degree days 2 1  
Since 1 June heating degree days 112 97  
Since 1 July heating degree days 21 12  
Cooling Degree Days 4 4  
Month to date cooling degree days 55 52  
Year to date cooling degree days 277 265  
Since 1 June cooling degree days 256 257  
Growing Degree Days 21 (Base 50)    
Moisture  
Dew Point 55 °F    
Average Humidity 60    
Maximum Humidity 87    
Minimum Humidity 33    
Precipitation  
Precipitation T in - 2.03 in (2014)
Month to date precipitation 0.68  
Year to date precipitation 21.29  
Sea Level Pressure  
Sea Level Pressure 29.90 in    
Wind  
Wind Speed 5 mph (NW)    
Max Wind Speed 16 mph    
Max Gust Speed 22 mph    
Visibility 10 miles    
Events Rain    
T = Trace of Precipitation, MM = Missing Value Source: NWS Daily Summary

Daily Weather History Graph

Daily Weather History Graph

Search for Another Location

Airport or City:

Astronomy

Aug. 13, 2017 Rise Set
Actual Time 5:54 AM EDT 8:02 PM EDT
Civil Twilight 5:22 AM EDT 8:34 PM EDT
Nautical Twilight 4:42 AM EDT 9:13 PM EDT
Astronomical Twilight 3:59 AM EDT 9:56 PM EDT
Moon 11:19 PM EDT (8/13) 12:05 PM EDT (8/13)
Length of Visible Light 15h 11m
Length of Day
14h 07m
Waning Gibbous, 65% of the Moon is Illuminated
Aug 13
Waning Gibbous
Aug 14
Last Quarter
Aug 21
New
Aug 29
First Quarter
Sep 6
Full

Hourly Weather History & Observations

Time (EDT) Temp. Dew Point Humidity Pressure Visibility Wind Dir Wind Speed Gust Speed Precip Events Conditions
12:53 AM 69.1 °F 57.9 °F 68% 29.79 in 10.0 mi WSW 4.6 mph - N/A   Scattered Clouds
1:53 AM 64.9 °F 60.1 °F 84% 29.79 in 10.0 mi Calm Calm - N/A   Mostly Cloudy
2:53 AM 66.0 °F 59.0 °F 78% 29.81 in 10.0 mi Calm Calm - N/A   Overcast
3:53 AM 63.0 °F 57.9 °F 84% 29.80 in 10.0 mi Calm Calm - N/A   Scattered Clouds
4:53 AM 62.1 °F 57.9 °F 86% 29.81 in 10.0 mi Calm Calm - N/A   Mostly Cloudy
5:53 AM 66.0 °F 59.0 °F 78% 29.83 in 10.0 mi NW 4.6 mph - N/A   Overcast
6:53 AM 66.0 °F 60.1 °F 81% 29.85 in 10.0 mi Variable 3.5 mph - 0.00 in Rain Light Rain
7:53 AM 68.0 °F 61.0 °F 78% 29.87 in 10.0 mi NW 3.5 mph - 0.00 in   Clear
8:53 AM 71.1 °F 57.9 °F 63% 29.90 in 10.0 mi NW 11.5 mph - N/A   Scattered Clouds
9:53 AM 72.0 °F 57.0 °F 59% 29.92 in 10.0 mi NNW 12.7 mph - N/A   Clear
10:53 AM 75.0 °F 57.0 °F 53% 29.92 in 10.0 mi NNW 12.7 mph - N/A   Clear
11:53 AM 78.1 °F 54.0 °F 43% 29.93 in 10.0 mi NW 13.8 mph 18.4 mph N/A   Partly Cloudy
12:53 PM 77.0 °F 51.1 °F 40% 29.93 in 10.0 mi North 8.1 mph - N/A   Partly Cloudy
1:53 PM 79.0 °F 51.1 °F 38% 29.94 in 10.0 mi NNW 10.4 mph - N/A   Mostly Cloudy
2:53 PM 80.1 °F 48.9 °F 34% 29.93 in 10.0 mi Variable 3.5 mph - N/A   Clear
3:53 PM 80.1 °F 51.1 °F 36% 29.93 in 10.0 mi Variable 5.8 mph - N/A   Mostly Cloudy
4:53 PM 81.0 °F 48.9 °F 33% 29.94 in 10.0 mi WNW 8.1 mph - N/A   Clear
5:53 PM 79.0 °F 48.9 °F 35% 29.94 in 10.0 mi NW 11.5 mph - N/A   Clear
6:53 PM 77.0 °F 51.1 °F 40% 29.95 in 10.0 mi WNW 3.5 mph - N/A   Clear
7:53 PM 66.9 °F 55.0 °F 66% 29.96 in 10.0 mi SSW 3.5 mph - N/A   Clear
8:53 PM 66.0 °F 54.0 °F 65% 29.98 in 10.0 mi West 3.5 mph - N/A   Clear
9:53 PM 64.0 °F 54.0 °F 70% 29.98 in 10.0 mi Calm Calm - N/A   Clear
10:53 PM 61.0 °F 54.0 °F 78% 29.99 in 10.0 mi Calm Calm - N/A   Clear
11:53 PM 57.9 °F 54.0 °F 87% 30.00 in 10.0 mi Calm Calm - N/A   Clear